Location: Litvinovka
(48.6667°N, 34.3500°E)
Time: 15:30:16
(UTC+00:00)

Abrixas rocket - Pass Details

Date: 18 September 2020
Orbit: 329 x 336 km, 48.4° (Epoch: 22 October)

Event Time Altitude Azimuth Distance (km) Brightness Sun altitude
Rises 16:27:16 0° 247° (WSW) 2,095 6.9 -7.2°
Reaches altitude 10° 16:29:17 10° 243° (WSW) 1,258 5.5 -7.5°
Maximum altitude 16:32:02 56° 165° (SSE) 399 2.0 -8.0°
Enters shadow 16:34:34 12° 86° (E) 1,168 3.9 -8.4°
